Weather History for KDUX - October, 2013

Change the Weather History Date:

Tuesday, October 1, 2013

  Actual Average (KBGD) Record (KBGD)
Temperature  
Mean Temperature 66 °F 66 °F  
Max Temperature 85 °F 78 °F 97 °F (2000)
Min Temperature 48 °F 54 °F 37 °F (1965)
Degree Days  
Heating Degree Days 0 3  
Month to date heating degree days 3  
Since 1 July heating degree days 31  
Cooling Degree Days 1 4  
Month to date cooling degree days 4  
Year to date cooling degree days 1789  
Growing Degree Days 16 (Base 50)    
Moisture  
Dew Point 45 °F    
Average Humidity 53    
Maximum Humidity 82    
Minimum Humidity 17    
Precipitation  
Precipitation 0.00 in 0.08 in 0.68 in (1981)
Month to date precipitation 0.08  
Year to date precipitation 18.47  
Snow  
Snow 0.00 in - 0.00 in (2013)
Month to date snowfall  
Since 1 July snowfall  
Since 1 September snowfall  
Snow Depth -    
Sea Level Pressure  
Sea Level Pressure 29.89 in    
Wind  
Wind Speed 8 mph (East)    
Max Wind Speed 17 mph    
Max Gust Speed 23 mph    
Visibility 10 miles    
Events      
T = Trace of Precipitation, MM = Missing Value Source: NWS Daily Summary

Daily Weather History Graph

Daily Weather History Graph

Search for Another Location

Airport or City:

Trip Planner

Search our weather history database for the weather conditions in past years. The results will help you decide how hot, cold, wet, or windy it might be!

Date:

Astronomy

Oct. 01, 2013 Rise Set
Actual Time 7:43 AM CDT 7:31 PM CDT
Civil Twilight 7:17 AM CDT 7:56 PM CDT
Nautical Twilight 6:48 AM CDT 8:26 PM CDT
Astronomical Twilight 6:18 AM CDT 8:56 PM CDT
Moon 4:25 AM CDT (10/1) 5:31 PM CDT (10/1)
Length of Visible Light 12h 39m
Length of Day
11h 48m
Waning Crescent, 12% of the Moon is Illuminated
Oct 1
Waning Crescent
Oct 4
New
Oct 11
First Quarter
Oct 18
Full
Oct 26
Last Quarter

Hourly Weather History & Observations

Time (CDT) Temp. Dew Point Humidity Pressure Visibility Wind Dir Wind Speed Gust Speed Precip Events Conditions
12:15 AM 53.4 °F 41.4 °F 64% 29.86 in 10.0 mi SE 8.1 mph - N/A   Clear
12:35 AM 54.0 °F 41.9 °F 64% 29.86 in 10.0 mi SE 6.9 mph - N/A   Clear
12:55 AM 52.9 °F 41.0 °F 64% 29.85 in 10.0 mi SSE 6.9 mph - N/A   Clear
1:15 AM 52.9 °F 41.0 °F 64% 29.84 in 10.0 mi SSE 8.1 mph - N/A   Clear
1:35 AM 52.2 °F 41.0 °F 66% 29.84 in 10.0 mi SSE 5.8 mph - N/A   Clear
1:55 AM 51.4 °F 41.9 °F 70% 29.85 in 10.0 mi South 6.9 mph - N/A   Clear
2:15 AM 51.4 °F 42.3 °F 71% 29.85 in 10.0 mi South 6.9 mph - N/A   Clear
2:35 AM 51.6 °F 42.6 °F 71% 29.85 in 10.0 mi South 8.1 mph - N/A   Clear
2:55 AM 53.1 °F 43.3 °F 70% 29.86 in 10.0 mi South 8.1 mph - N/A   Clear
3:15 AM 51.8 °F 43.9 °F 74% 29.85 in 10.0 mi South 8.1 mph - N/A   Clear
3:35 AM 52.5 °F 44.6 °F 74% 29.84 in 10.0 mi South 6.9 mph - N/A   Clear
3:55 AM 52.0 °F 44.4 °F 75% 29.84 in 10.0 mi South 6.9 mph - N/A   Clear
4:15 AM 51.3 °F 44.6 °F 78% 29.83 in 10.0 mi Calm Calm - N/A   Clear
4:35 AM 48.7 °F 43.2 °F 81% 29.83 in 10.0 mi Calm Calm - N/A   Clear
4:55 AM 48.6 °F 43.0 °F 81% 29.83 in 10.0 mi West 5.8 mph - N/A   Clear
5:15 AM 48.4 °F 43.2 °F 82% 29.84 in 10.0 mi WSW 5.8 mph - N/A   Clear
5:35 AM 50.5 °F 44.4 °F 80% 29.84 in 10.0 mi SW 3.5 mph - N/A   Clear
5:55 AM 49.3 °F 43.3 °F 80% 29.84 in 10.0 mi WSW 4.6 mph - N/A   Clear
6:15 AM 49.3 °F 43.2 °F 79% 29.85 in 10.0 mi WSW 5.8 mph - N/A   Clear
6:35 AM 50.2 °F 43.3 °F 77% 29.86 in 10.0 mi Calm Calm - N/A   Clear
6:55 AM 49.1 °F 42.8 °F 79% 29.86 in 10.0 mi WNW 5.8 mph - N/A   Clear
7:15 AM 48.4 °F 42.6 °F 80% 29.87 in 10.0 mi WNW 4.6 mph - N/A   Clear
7:35 AM 48.6 °F 42.3 °F 79% 29.87 in 10.0 mi WNW 4.6 mph - N/A   Clear
7:55 AM 48.4 °F 41.5 °F 77% 29.88 in 10.0 mi West 5.8 mph - N/A   Clear
8:15 AM 48.6 °F 41.5 °F 77% 29.88 in 10.0 mi WNW 5.8 mph - N/A   Clear
8:35 AM 52.2 °F 42.3 °F 69% 29.89 in 10.0 mi Calm Calm - N/A   Clear
8:55 AM 54.0 °F 44.1 °F 69% 29.90 in 10.0 mi NW 5.8 mph - N/A   Clear
9:15 AM 57.0 °F 44.2 °F 62% 29.90 in 10.0 mi Calm Calm - N/A   Clear
9:35 AM 61.0 °F 45.7 °F 57% 29.90 in 10.0 mi Calm Calm - N/A   Clear
9:55 AM 64.6 °F 46.0 °F 51% 29.91 in 10.0 mi NW 5.8 mph - N/A   Clear
10:15 AM 68.4 °F 45.7 °F 44% 29.91 in 10.0 mi NNW 8.1 mph - N/A   Clear
10:35 AM 72.7 °F 44.1 °F 36% 29.91 in 10.0 mi North 8.1 mph - N/A   Clear
10:55 AM 76.5 °F 39.4 °F 26% 29.91 in 10.0 mi North 11.5 mph - N/A   Clear
11:15 AM 77.0 °F 39.6 °F 26% 29.92 in 10.0 mi North 10.4 mph - N/A   Clear
11:35 AM 77.9 °F 38.8 °F 25% 29.92 in 10.0 mi North 9.2 mph - N/A   Clear
11:55 AM 79.2 °F 37.8 °F 23% 29.92 in 10.0 mi NNE 6.9 mph - N/A   Clear
12:15 PM 81.1 °F 37.6 °F 21% 29.92 in 10.0 mi NE 6.9 mph - N/A   Clear
12:35 PM 82.8 °F 34.7 °F 18% 29.92 in 10.0 mi ENE 9.2 mph - N/A   Clear
12:55 PM 83.3 °F 34.5 °F 17% 29.92 in 10.0 mi ENE 12.7 mph 16.1 mph N/A   Clear
1:15 PM 83.8 °F 34.7 °F 17% 29.92 in 10.0 mi ENE 11.5 mph - N/A   Clear
1:35 PM 84.2 °F 35.2 °F 17% 29.91 in 10.0 mi East 11.5 mph 16.1 mph N/A   Clear
1:55 PM 84.6 °F 35.4 °F 17% 29.91 in 10.0 mi East 12.7 mph 17.3 mph N/A   Clear
2:15 PM 84.0 °F 38.8 °F 20% 29.91 in 10.0 mi ENE 13.8 mph 19.6 mph N/A   Clear
2:35 PM 83.8 °F 43.7 °F 24% 29.90 in 10.0 mi ENE 17.3 mph 23.0 mph N/A   Clear
2:55 PM 83.5 °F 44.6 °F 25% 29.90 in 10.0 mi East 13.8 mph 23.0 mph N/A   Clear
3:15 PM 82.4 °F 46.8 °F 29% 29.90 in 10.0 mi East 15.0 mph 19.6 mph N/A   Clear
3:35 PM 82.6 °F 46.4 °F 28% 29.91 in 10.0 mi ESE 11.5 mph 21.9 mph N/A   Clear
3:55 PM 82.2 °F 42.8 °F 25% 29.91 in 10.0 mi East 13.8 mph 18.4 mph N/A   Clear
4:15 PM 81.5 °F 45.5 °F 28% 29.91 in 10.0 mi East 11.5 mph - N/A   Clear
4:35 PM 81.9 °F 46.8 °F 29% 29.91 in 10.0 mi East 11.5 mph 17.3 mph N/A   Clear
4:55 PM 81.7 °F 47.7 °F 30% 29.91 in 10.0 mi East 9.2 mph - N/A   Clear
5:15 PM 82.0 °F 48.2 °F 31% 29.91 in 10.0 mi East 11.5 mph - N/A   Clear
5:35 PM 81.5 °F 49.5 °F 33% 29.90 in 10.0 mi ENE 12.7 mph - N/A   Clear
5:55 PM 81.1 °F 50.9 °F 35% 29.91 in 10.0 mi NE 10.4 mph - N/A   Clear
6:15 PM 80.6 °F 50.5 °F 35% 29.91 in 10.0 mi ENE 12.7 mph 16.1 mph N/A   Clear
6:35 PM 80.1 °F 50.5 °F 36% 29.91 in 10.0 mi NE 12.7 mph - N/A   Clear
6:55 PM 79.5 °F 50.4 °F 36% 29.91 in 10.0 mi ESE 11.5 mph - N/A   Clear
7:15 PM 77.2 °F 51.4 °F 41% 29.91 in 10.0 mi ESE 10.4 mph - N/A   Clear
7:35 PM 75.2 °F 52.2 °F 44% 29.92 in 10.0 mi ESE 8.1 mph - N/A   Clear
7:55 PM 73.4 °F 52.5 °F 48% 29.92 in 10.0 mi ESE 9.2 mph - N/A   Clear
8:15 PM 71.8 °F 52.7 °F 51% 29.92 in 10.0 mi East 8.1 mph - N/A   Clear
8:35 PM 70.7 °F 53.2 °F 54% 29.93 in 10.0 mi East 9.2 mph - N/A   Clear
8:55 PM 71.6 °F 54.5 °F 55% 29.93 in 10.0 mi East 10.4 mph - N/A   Clear
9:15 PM 71.2 °F 55.8 °F 58% 29.93 in 10.0 mi East 11.5 mph - N/A   Clear
9:35 PM 70.5 °F 56.3 °F 61% 29.94 in 10.0 mi ENE 11.5 mph - N/A   Clear
9:55 PM 68.4 °F 55.8 °F 64% 29.93 in 10.0 mi ENE 10.4 mph - N/A   Clear
10:15 PM 67.6 °F 56.3 °F 67% 29.94 in 10.0 mi East 9.2 mph - N/A   Clear
10:35 PM 67.5 °F 56.7 °F 68% 29.94 in 10.0 mi East 8.1 mph - N/A   Clear
10:55 PM 66.4 °F 56.5 °F 70% 29.94 in 10.0 mi East 6.9 mph - N/A   Clear
11:15 PM 65.3 °F 56.3 °F 73% 29.94 in 10.0 mi East 6.9 mph - N/A   Clear
11:35 PM 63.3 °F 55.8 °F 76% 29.94 in 10.0 mi East 6.9 mph - N/A   Clear
11:55 PM 63.5 °F 55.9 °F 76% 29.93 in 10.0 mi ESE 5.8 mph - N/A   Clear